Weather History for KHND - October, 2012

Change the Weather History Date:

Tuesday, October 2, 2012

  Actual Average (KLAS) Record (KLAS)
Temperature  
Mean Temperature 82 °F 76 °F  
Max Temperature 99 °F 87 °F 100 °F (1980)
Min Temperature 65 °F 64 °F 43 °F (1959)
Degree Days  
Heating Degree Days 0 0  
Month to date heating degree days 0  
Since 1 July heating degree days 1  
Cooling Degree Days 17 11  
Month to date cooling degree days 22  
Year to date cooling degree days 3399  
Growing Degree Days 32 (Base 50)    
Moisture  
Dew Point 29 °F    
Average Humidity 16    
Maximum Humidity 29    
Minimum Humidity 7    
Precipitation  
Precipitation 0.00 in 0.00 in 0.17 in (1941)
Month to date precipitation 0.01  
Year to date precipitation 3.07  
Snow  
Snow 0.00 in 0.00 in 0.00 in ()
Month to date snowfall 0.0  
Since 1 July snowfall 0.0  
Since 1 September snowfall 0.0  
Snow Depth -    
Sea Level Pressure  
Sea Level Pressure 29.80 in    
Wind  
Wind Speed 9 mph (South)    
Max Wind Speed 14 mph    
Max Gust Speed -    
Visibility 10 miles    
Events      
T = Trace of Precipitation, MM = Missing Value Source: NWS Daily Summary

Daily Weather History Graph

Daily Weather History Graph

Search for Another Location

Airport or City:

Trip Planner

Search our weather history database for the weather conditions in past years. The results will help you decide how hot, cold, wet, or windy it might be!

Date:

Astronomy

Oct. 02, 2012 Rise Set
Actual Time 6:36 AM PDT 6:21 PM PDT
Civil Twilight 6:11 AM PDT 6:47 PM PDT
Nautical Twilight 5:41 AM PDT 7:17 PM PDT
Astronomical Twilight 5:11 AM PDT 7:46 PM PDT
Moon 7:44 PM PDT (10/2) 9:01 AM PDT (10/2)
Length of Visible Light 12h 36m
Length of Day
11h 45m
Waning Gibbous, 93% of the Moon is Illuminated
Oct 2
Waning Gibbous
Oct 8
Last Quarter
Oct 15
New
Oct 21
First Quarter
Oct 29
Full

Hourly Weather History & Observations

Time (PDT) Temp. Dew Point Humidity Pressure Visibility Wind Dir Wind Speed Gust Speed Precip Events Conditions
12:56 AM 74.8 °F 29.1 °F 19% 29.83 in 10.0 mi South 12.7 mph - N/A   Clear
1:56 AM 74.8 °F 29.1 °F 19% 29.83 in 10.0 mi SW 13.8 mph - N/A   Clear
2:56 AM 72.0 °F 29.1 °F 20% 29.83 in 10.0 mi South 11.5 mph - N/A   Clear
3:56 AM 70.9 °F 29.1 °F 21% 29.83 in 10.0 mi SSW 10.4 mph - N/A   Clear
4:56 AM 68.0 °F 30.0 °F 24% 29.84 in 10.0 mi South 8.1 mph - N/A   Clear
5:56 AM 65.8 °F 32.9 °F 29% 29.84 in 10.0 mi South 8.1 mph - N/A   Clear
6:56 AM 66.9 °F 30.0 °F 25% 29.86 in 10.0 mi SSW 9.2 mph - N/A   Clear
7:56 AM 70.0 °F 34.9 °F 28% 29.87 in 10.0 mi SSE 4.6 mph - N/A   Clear
8:56 AM 79.9 °F 34.0 °F 19% 29.87 in 10.0 mi SSW 5.8 mph - N/A   Clear
9:56 AM 84.9 °F 31.1 °F 14% 29.88 in 10.0 mi Calm Calm - N/A   Clear
10:56 AM 86.9 °F 30.0 °F 13% 29.86 in 10.0 mi Calm Calm - N/A   Clear
11:56 AM 91.9 °F 32.9 °F 12% 29.84 in 10.0 mi NE 5.8 mph - N/A   Clear
1:56 PM 97.0 °F 31.1 °F 10% 29.76 in 10.0 mi North 6.9 mph - N/A   Clear
2:56 PM 99.9 °F 28.0 °F 8% 29.74 in 10.0 mi Variable 5.8 mph - N/A   Clear
3:56 PM 99.0 °F 23.0 °F 7% 29.72 in 10.0 mi Calm Calm - N/A   Clear
4:56 PM 97.9 °F 25.2 °F 7% 29.72 in 10.0 mi Calm Calm - N/A   Clear
5:56 PM 95.9 °F 29.1 °F 9% 29.72 in 10.0 mi Calm Calm - N/A   Clear
7:56 PM 86.0 °F 26.1 °F 11% 29.73 in 10.0 mi South 11.5 mph - N/A   Clear
8:56 PM 82.9 °F 26.1 °F 13% 29.74 in 10.0 mi South 10.4 mph - N/A   Clear
9:56 PM 79.9 °F 26.1 °F 14% 29.74 in 10.0 mi SSW 9.2 mph - N/A   Clear
10:56 PM 77.9 °F 26.1 °F 15% 29.75 in 10.0 mi South 8.1 mph - N/A   Clear
11:56 PM 77.9 °F 25.2 °F 14% 29.73 in 10.0 mi SSW 12.7 mph - N/A   Clear